Regional Weather Roundup
Issued by NWS Little Rock, AR

Home | Current Version | Previous Version | Graphics & Text | Print | Product List | Glossary On
Versions: 1 2 3 4 5 6 7 8 9 10 11 12 13 14 15 16 17 18 19 20 21 22 23 24 25 26 27 28 29 30 31 32 33 34 35 36 37 38 39 40 41 42 43 44 45 46 47 48 49 50
000
ASUS44 KLZK 032005
RWRLZK

WEATHER ROUNDUP FOR ARKANSAS
NATIONAL WEATHER SERVICE LITTLE ROCK AR
200 PM CST TUE MAR 03 2015

NOTE: "FAIR" INDICATES FEW OR NO CLOUDS BELOW 12,000 FEET WITH NO
SIGNIFICANT WEATHER AND/OR OBSTRUCTIONS TO VISIBILITY.

ARZ001-003-010-029-032100-
NORTHWEST ARKANSAS

CITY           SKY/WX    TMP DP  RH WIND       PRES   REMARKS
FAYETTEVILLE   CLOUDY    49  48  97 S14       29.85F
FORT SMITH     FOG       42  40  92 NE5       29.90F VSB 1
HARRISON       CLOUDY    56  52  86 SW9G21    29.83F
BENTONVILLE    CLOUDY    50  45  81 W12       29.85F
ROGERS         CLOUDY    50  48  93 W12       29.85F
SILOAM SPGS    CLOUDY    48  45  87 SW14      29.85F
HIGHFILL       CLOUDY    50  46  87 SW13G22   29.82F
SPRINGDALE     CLOUDY    50  50 100 SW17G24   29.85F
$$

ARZ004-005-016-032100-
NORTH CENTRAL ARKANSAS

CITY           SKY/WX    TMP DP  RH WIND       PRES   REMARKS
BATESVILLE     CLOUDY    57  50  77 SW15      29.91F
FLIPPIN        CLOUDY    59  50  72 SW8G20    29.84F
MTN HOME       CLOUDY    57  51  80 SW8       29.84F
$$

ARZ040-041-032100-
WEST CENTRAL ARKANSAS

CITY           SKY/WX    TMP DP  RH WIND       PRES   REMARKS
MENA           CLOUDY    50  50 100 W8        29.90F
MOUNT IDA      CLOUDY    59  54  83 VRB6      29.88F
$$

ARZ009-017-025-026-028-032100-
NORTHEAST ARKANSAS

CITY           SKY/WX    TMP DP  RH WIND       PRES   REMARKS
CORNING        FAIR      45  43  93 SW15      29.91F FOG
JONESBORO      CLOUDY    47  46  97 SW15      29.93F
NEWPORT        CLOUDY    51  47  86 S16       29.93F
WALNUT RIDGE   PTSUNNY   45  39  81 SW16      29.90F
BLYTHEVILLE    CLOUDY    52  52 100 SW21G28   29.94F
NW BLYTHEVILLE FOG       52  50  93 SW15G22   29.94F VSB 3/4
$$

ARZ022-023-033-042-044-032100-
CENTRAL ARKANSAS

CITY           SKY/WX    TMP DP  RH WIND       PRES   REMARKS
LITTLE ROCK    CLOUDY    52  46  80 SW9       29.94F
N LITTLE ROCK  CLOUDY    54  50  88 S14G20    29.94F
JACKSONVILLE   FAIR      56  48  75 S10       29.91F
SEARCY         PTSUNNY   58  49  72 S10       29.91F
HOT SPRINGS    CLOUDY    54  48  80 CALM      29.93F
RUSSELLVILLE   LGT RAIN  45  43  93 NW7       29.90F FOG
CLINTON        LGT RAIN  46  45  93 CALM      29.93F VSB 1
$$

ARZ036-032100-
EAST ARKANSAS

CITY           SKY/WX    TMP DP  RH WIND       PRES   REMARKS
WEST MEMPHIS   RAIN      51  51 100 S10       29.96F FOG
$$

ARZ050-053-066-070-073-032100-
SOUTHWEST ARKANSAS

CITY           SKY/WX    TMP DP  RH WIND       PRES   REMARKS
ARKADELPHIA    CLOUDY    46  46 100 VRB3      29.95F FOG
CAMDEN         FOG       50  48  93 MISG      29.97F VSB 1
TEXARKANA      FAIR      63  57  81 S12       29.92F
EL DORADO      LGT RAIN  53  52  96 CALM      29.97F
DE QUEEN       FOG       46  45  96 E3        29.91F VSB 1
$$

ARZ056-057-069-032100-
SOUTHEAST ARKANSAS

CITY           SKY/WX    TMP DP  RH WIND       PRES   REMARKS
PINE BLUFF     CLOUDY    50  49  96 SW6       29.96F FOG
STUTTGART      CLOUDY    48  46  93 S10       29.97F
MONTICELLO     CLOUDY    56  55  97 SW5       29.97F

$$




USA.gov is the U.S. government's official web portal to all federal, state and local government web resources and services.